Airfield :
LOGIN :

Register | Disclaimer

   EN    FR    IT 

 










Legend :    VFR   Marginal VFR   IFR   Intensive IFR   Very Intensive IFR
Visi :
Ceiling :
>= 8 km
>= 3000ft
5 to 8 km
1000 to 3000 ft
1500m to 5 km
500 to 1000 ft
800 to 1500m
200 to 500 ft
< 800m
< 200 ft
Symbols :   Thunderstorms  Fog  Heavy snow  Heavy precipitations  Wind > 20 kt
SIGMETs :     Misc.  Thunderstorms  Icing  Turbulence  Mountain Waves  Volcanic Ashes







- Airport Elevation : 446 ft
- IATA code : VNE
- Download approach charts


LFRV - Vannes-Meucon

CURRENT METAR :
  • 231630Z AUTO 32006KT 280V350 9999 BKN005 BKN009 OVC019 17/17 Q1014

EXPIRED METARs :
  • 231600Z AUTO 28007KT 250V310 9999 OVC008 18/17 Q1014
  • 231530Z AUTO 29006KT 9999 BKN006 BKN010 OVC014 17/17 Q1014
  • 231500Z AUTO 27006KT 9999 OVC003 17/17 Q1014
  • 231430Z AUTO 22004KT 180V280 9000 OVC003 17/17 Q1014
  • 231400Z AUTO 16004KT 120V210 9999 -RA BKN004 OVC009 17/17 Q1014

TAF N/A
No reported NOTAMs for that airfield.



MET'MAP, your aeronautical weather chart ! - Copyright ORBIFLY December 2007 - Disclaimer

ORBIFLY MET'MAP TEAM :

Programming & Development : Alexandra Zaïnal
Concept & Development : Baudouin d'Aumeries
Co-Development & Prog : Marc-Olivier Méhu
Technical & hardware support : Manuel Goepfert

Contact : metmap@orbifly.com




SOURCES & CREDITS :

   NOAA